Location: Munkebjergskolens Observatorium
(55.3864°N, 10.3987°E)
Time: 00:25:57
(UTC+02:00)

UKube-1 - Visible Passes

Search period start: 01 April 2023 00:00
Search period end: 11 April 2023 00:00
Orbit: 602 x 609 km, 98.3° (Epoch: 31 March)

Date Brightness Start Highest point End Pass type
(mag) Time Alt. Az. Time Alt. Az. Time Alt. Az.
01 Apr ? 00:29:49 10° NNE 00:32:00 28° NE 00:32:00 28° NE visible
01 Apr ? 02:06:06 10° N 02:08:52 23° NW 02:08:52 23° NW visible
02 Apr ? 00:42:35 10° NNE 00:45:03 34° NNE 00:45:03 34° NNE visible
02 Apr ? 02:19:07 10° N 02:21:55 20° NW 02:21:55 20° NW visible
02 Apr ? 23:20:49 10° NE 23:21:14 11° ENE 23:21:14 11° ENE visible
03 Apr ? 00:55:23 10° NNE 00:58:06 39° NNE 00:58:06 39° NNE visible
03 Apr ? 02:32:12 10° NNW 02:34:51 16° NW 02:34:58 16° NW visible
03 Apr ? 23:33:09 10° NE 23:34:16 14° ENE 23:34:16 14° ENE visible
04 Apr ? 01:08:12 10° NNE 01:11:08 42° N 01:11:08 42° N visible
04 Apr ? 02:45:22 10° NNW 02:47:29 14° NW 02:48:00 13° WNW visible
04 Apr ? 23:45:39 10° NE 23:47:17 18° ENE 23:47:17 18° ENE visible
05 Apr ? 01:21:01 10° N 01:24:09 42° NNW 01:24:09 42° NNW visible
05 Apr ? 02:58:45 10° NNW 03:00:04 11° NW 03:01:01 11° WNW visible
05 Apr ? 23:58:11 10° NNE 00:00:17 23° NE 00:00:17 23° NE visible
06 Apr ? 01:33:51 10° N 01:37:09 38° NW 01:37:09 38° NW visible
07 Apr ? 00:10:48 10° NNE 00:13:16 28° NE 00:13:16 28° NE visible
07 Apr ? 01:46:42 10° N 01:50:08 33° NW 01:50:08 33° NW visible
08 Apr ? 00:23:25 10° NNE 00:26:14 35° NE 00:26:14 35° NE visible
08 Apr ? 01:59:33 10° N 02:03:06 27° WNW 02:03:06 27° WNW visible
09 Apr ? 00:36:04 10° NNE 00:39:12 44° NE 00:39:12 44° NE visible
09 Apr ? 02:12:26 10° N 02:15:46 23° WNW 02:16:03 22° WNW visible
09 Apr ? 23:14:38 10° ENE 23:15:16 11° ENE 23:15:16 11° ENE visible
10 Apr ? 00:48:45 10° NNE 00:52:08 55° NNE 00:52:08 55° NNE visible
10 Apr ? 02:25:21 10° N 02:28:20 19° NW 02:29:00 18° WNW visible
10 Apr ? 23:26:43 10° NE 23:28:12 15° ENE 23:28:12 15° ENE visible
